• Join FlightAware (Why Join?)
  • Login
  • US Flag 
07:44PM EDT


 

Airport Tracker/Info


-or-


 

Live Flight TrackerFlight Track Log ✈ KAP927 ✈ 07-Jun-2013 ✈ KALB - KOGS

Flight Track Log - Related Links

Times and Time Zones

All times are in EDT time to prevent confusion due to time zone crossing. See the KAP927 flight status page for this flight to view local times or setup timezone preferences in your user account.

Time Position Orientation Groundspeed Altitude Reporting Facility
EDT Latitude Longitude Course Direction KTS MPH feet Rate Location/Type
07:37PM 43.8117 -74.7158 329° Northwest 166 191 7,900  Level Boston Center
07:38PM 43.8439 -74.7633 313° West 166 191 7,900  Level Boston Center
07:39PM 43.8786 -74.8078 317° Northwest 166 191 7,900  Level Boston Center
07:40PM 43.9089 -74.8550 312° West 166 191 7,900  Level Boston Center
07:41PM 43.9433 -74.8997 317° Northwest 171 197 8,000  Climbing Boston Center
07:42PM 43.9564 -74.8260 329° Northwest  Level Estimated
07:42PM 43.9736 -74.9442 313° West 171 197 7,900  Level Boston Center
07:43PM 44.0058 -74.9889 315° West 171 197 7,900  Level Boston Center
07:44PM 44.0383 -75.0308 317° Northwest 171 197 7,900  Level Boston Center
07:45PM 44.0664 -75.0753 311° West 166 191 7,900 -120 Level Boston Center
07:46PM 44.1008 -75.1172 319° Northwest 166 191 7,700 -300 Descending Boston Center
07:47PM 44.1331 -75.1681 311° West 172 198 7,300 -480 Descending Boston Center
07:48PM 44.1675 -75.2158 315° West 172 198 6,800 -480 Descending Boston Center
07:49PM 44.2056 -75.2697 315° West 172 198 6,400 -480 Descending Boston Center
07:50PM 44.2419 -75.3236 313° West 177 204 5,900 -480 Descending Boston Center
07:51PM 44.2803 -75.3747 316° Northwest 177 204 5,500 -420 Descending Boston Center
07:52PM 44.3144 -75.4231 315° West 177 204 5,100 -300 Descending Boston Center
07:53PM 44.3506 -75.4742 315° West 177 204 4,900 -120 Descending Boston Center
07:54PM 44.3828 -75.5194 315° West 172 198 4,900  Level Boston Center
07:55PM 44.4150 -75.5617 317° Northwest 166 191 4,900  Level Boston Center
07:56PM 44.4428 -75.6097 309° West 166 191 4,900 -300 Level Boston Center
07:57PM 44.4769 -75.6581 315° West 166 191 4,400 -540 Descending Boston Center
07:58PM 44.5172 -75.7011 323° Northwest 171 197 3,900 -540 Descending Boston Center
07:59PM 44.5667 -75.7214 344° North 171 197 3,400 -480 Descending Boston Center
08:00PM 44.6181 -75.7447 342° North 176 203 3,000 -540 Descending Boston Center
08:01PM 44.6333 -75.6667 75° East 170 196 2,400 -420 Descending Montreal Center
08:02PM 44.6333 -75.6167 90° East 170 196 2,200 -360 Descending Montreal Center
08:03PM 44.6500 -75.5500 71° East 150 173 1,700 -600 Descending Montreal Center
08:04PM 44.6667 -75.5000 65° Northeast 130 150 1,100 2,100 Descending Montreal Center
08:06PM 44.7947 -75.8394 298° West 176 203 8,000 1,740 Climbing Boston Center
08:08PM 44.7947 -75.8394 305° West 176 203 8,000  Level Boston Center
08:10PM 44.6842 -75.4650 112° Southeast 176 203 8,000  Level Boston Center
08:12PM 44.6842 -75.4650 180° South 176 203 8,000  Level Boston Center
08:14PM 44.6842 -75.4650 180° South 176 203 8,000  Level Boston Center